TimeEDT,TemperatureF,Dew PointF,Humidity,Sea Level PressureIn,VisibilityMPH,Wind Direction,Wind SpeedMPH,Gust SpeedMPH,PrecipitationIn,Events,Conditions,WindDirDegrees,DateUTC
12:15 AM,67.5,67.1,99,30.05,3.0,Calm,Calm,-,0.18,Rain,Heavy Rain,0,2013-07-02 04:15:00
12:35 AM,67.3,67.1,99,30.05,5.0,Calm,Calm,-,0.36,Rain,Light Rain,0,2013-07-02 04:35:00
12:55 AM,67.1,67.1,100,30.05,5.0,NNW,3.5,-,0.42,Rain,Rain,330,2013-07-02 04:55:00
1:15 AM,66.7,66.7,100,30.06,7.0,Calm,Calm,-,0.02,Rain,Light Rain,0,2013-07-02 05:15:00
1:35 AM,66.6,66.6,100,30.06,10.0,Calm,Calm,-,0.02,,Overcast,0,2013-07-02 05:35:00
1:55 AM,66.7,66.7,100,30.05,10.0,Calm,Calm,-,0.02,,Mostly Cloudy,0,2013-07-02 05:55:00
2:15 AM,66.2,66.2,100,30.05,4.0,Calm,Calm,-,N/A,Rain,Light Rain,0,2013-07-02 06:15:00
2:35 AM,66.2,66.2,100,30.05,4.0,Calm,Calm,-,0.02,,Mostly Cloudy,0,2013-07-02 06:35:00
2:55 AM,66.2,66.2,100,30.05,7.0,Calm,Calm,-,0.02,,Overcast,0,2013-07-02 06:55:00
3:15 AM,65.8,65.8,100,30.05,7.0,Calm,Calm,-,N/A,,Mostly Cloudy,0,2013-07-02 07:15:00
3:35 AM,65.5,65.5,100,30.05,5.0,Calm,Calm,-,0.01,,Mostly Cloudy,0,2013-07-02 07:35:00
3:55 AM,65.5,65.5,100,30.05,7.0,Calm,Calm,-,0.01,,Scattered Clouds,0,2013-07-02 07:55:00
4:15 AM,64.9,64.9,100,30.05,5.0,Calm,Calm,-,N/A,,Scattered Clouds,0,2013-07-02 08:15:00
4:35 AM,64.9,64.9,100,30.06,5.0,Calm,Calm,-,N/A,,Scattered Clouds,0,2013-07-02 08:35:00
4:55 AM,64.9,64.9,100,30.06,7.0,Calm,Calm,-,N/A,,Scattered Clouds,0,2013-07-02 08:55:00
5:15 AM,65.3,65.3,100,30.06,5.0,Calm,Calm,-,N/A,,Scattered Clouds,0,2013-07-02 09:15:00
5:35 AM,65.3,65.3,100,30.06,3.0,Calm,Calm,-,N/A,,Mostly Cloudy,0,2013-07-02 09:35:00
5:55 AM,65.3,65.3,100,30.07,0.8,Calm,Calm,-,N/A,,Overcast,0,2013-07-02 09:55:00
6:15 AM,65.5,65.5,100,30.07,0.5,Calm,Calm,-,0.01,Rain,Heavy Rain,0,2013-07-02 10:15:00
6:35 AM,65.3,65.3,100,30.08,3.0,Calm,Calm,-,0.07,Rain,Rain,0,2013-07-02 10:35:00
6:55 AM,65.3,65.3,100,30.08,4.0,Calm,Calm,-,0.08,Rain,Rain,0,2013-07-02 10:55:00
7:15 AM,65.7,65.7,100,30.08,5.0,Calm,Calm,-,N/A,Rain,Light Rain,0,2013-07-02 11:15:00
7:35 AM,65.8,65.8,100,30.08,3.0,NW,8.1,-,0.01,Rain,Heavy Rain,310,2013-07-02 11:35:00
7:55 AM,66.0,66.0,100,30.10,0.8,Calm,Calm,-,0.74,Rain,Heavy Rain,0,2013-07-02 11:55:00
8:15 AM,66.4,66.4,100,30.10,4.0,Calm,Calm,-,0.05,Rain,Light Rain,0,2013-07-02 12:15:00
8:35 AM,66.9,66.9,100,30.12,10.0,Calm,Calm,-,0.05,,Drizzle,0,2013-07-02 12:35:00
8:55 AM,66.7,66.7,100,30.12,10.0,Calm,Calm,-,0.05,,Overcast,0,2013-07-02 12:55:00
9:15 AM,67.1,67.1,100,30.13,10.0,Calm,Calm,-,N/A,,Overcast,0,2013-07-02 13:15:00
9:35 AM,68.0,68.0,100,30.13,10.0,Calm,Calm,-,0.01,,Overcast,0,2013-07-02 13:35:00
9:55 AM,68.9,68.9,100,30.13,10.0,Calm,Calm,-,0.01,,Overcast,0,2013-07-02 13:55:00
10:15 AM,69.3,68.9,99,30.14,10.0,Calm,Calm,-,N/A,,Overcast,0,2013-07-02 14:15:00
10:35 AM,69.8,67.5,92,30.14,10.0,Calm,Calm,-,N/A,Rain,Light Rain,0,2013-07-02 14:35:00
10:55 AM,68.9,67.6,96,30.14,1.0,Calm,Calm,-,0.14,Rain,Heavy Rain,0,2013-07-02 14:55:00
11:15 AM,68.9,68.4,98,30.15,2.0,Calm,Calm,-,0.15,Rain,Heavy Rain,0,2013-07-02 15:15:00
11:35 AM,69.1,68.2,97,30.14,10.0,Calm,Calm,-,0.19,Rain,Light Rain,0,2013-07-02 15:35:00
11:55 AM,71.1,68.0,90,30.14,10.0,Calm,Calm,-,0.19,,Overcast,0,2013-07-02 15:55:00
12:15 PM,72.5,67.1,83,30.14,10.0,Calm,Calm,-,N/A,,Overcast,0,2013-07-02 16:15:00
12:35 PM,74.5,68.4,81,30.14,10.0,Calm,Calm,-,0.01,,Mostly Cloudy,0,2013-07-02 16:35:00
12:55 PM,73.0,68.4,85,30.14,10.0,Calm,Calm,-,0.01,,Overcast,0,2013-07-02 16:55:00
1:15 PM,72.0,68.9,90,30.14,7.0,Calm,Calm,-,0.01,Rain,Light Rain,0,2013-07-02 17:15:00
1:35 PM,70.5,67.6,91,30.15,10.0,WNW,4.6,-,0.01,,Overcast,290,2013-07-02 17:35:00
2:15 PM,68.0,66.2,94,30.14,7.0,WSW,4.6,-,0.02,Rain,Rain,250,2013-07-02 18:15:00
2:35 PM,67.8,66.9,97,30.16,3.0,SSE,6.9,-,0.11,Rain,Heavy Rain,150,2013-07-02 18:35:00
2:55 PM,67.5,67.1,99,30.15,3.0,Calm,Calm,-,0.54,Rain,Heavy Rain,0,2013-07-02 18:55:00
3:15 PM,68.0,67.6,99,30.14,1.5,Calm,Calm,-,0.11,Rain,Heavy Rain,0,2013-07-02 19:15:00
3:35 PM,69.8,69.4,99,30.15,7.0,Calm,Calm,-,0.13,Rain,Light Rain,0,2013-07-02 19:35:00
3:55 PM,69.6,68.7,97,30.14,10.0,NNW,3.5,-,0.13,,Light Drizzle,330,2013-07-02 19:55:00
4:15 PM,69.1,68.5,98,30.14,10.0,Calm,Calm,-,N/A,,Overcast,0,2013-07-02 20:15:00
4:35 PM,70.2,69.1,96,30.14,10.0,Calm,Calm,-,0.01,,Overcast,0,2013-07-02 20:35:00
4:55 PM,70.9,68.7,93,30.14,10.0,Calm,Calm,-,0.01,,Overcast,0,2013-07-02 20:55:00
5:15 PM,72.3,68.2,87,30.14,10.0,Calm,Calm,-,N/A,,Overcast,0,2013-07-02 21:15:00
5:35 PM,72.1,68.4,88,30.14,10.0,Calm,Calm,-,N/A,,Overcast,0,2013-07-02 21:35:00
5:55 PM,72.0,68.7,89,30.15,10.0,Calm,Calm,-,N/A,,Mostly Cloudy,0,2013-07-02 21:55:00
6:15 PM,72.7,68.9,88,30.15,10.0,SE,3.5,-,N/A,,Mostly Cloudy,130,2013-07-02 22:15:00
6:35 PM,72.7,68.9,88,30.15,10.0,Calm,Calm,-,N/A,,Scattered Clouds,0,2013-07-02 22:35:00
6:55 PM,72.7,68.5,87,30.16,10.0,SE,4.6,-,N/A,,Scattered Clouds,140,2013-07-02 22:55:00
7:15 PM,72.5,68.7,88,30.16,10.0,ESE,4.6,-,N/A,,Mostly Cloudy,120,2013-07-02 23:15:00
7:35 PM,72.7,69.3,89,30.16,10.0,Calm,Calm,-,N/A,,Mostly Cloudy,0,2013-07-02 23:35:00
7:55 PM,72.5,69.4,90,30.17,10.0,ESE,4.6,-,N/A,,Mostly Cloudy,110,2013-07-02 23:55:00
8:15 PM,71.8,68.9,91,30.17,10.0,SE,4.6,-,N/A,,Light Drizzle,140,2013-07-03 00:15:00
8:35 PM,71.6,68.7,91,30.17,10.0,SE,5.8,-,N/A,,Overcast,140,2013-07-03 00:35:00
8:55 PM,71.1,68.0,90,30.19,10.0,SE,3.5,-,N/A,,Overcast,140,2013-07-03 00:55:00
9:15 PM,70.9,68.0,91,30.19,10.0,SSE,5.8,-,N/A,,Overcast,150,2013-07-03 01:15:00
9:35 PM,70.7,68.0,91,30.20,10.0,SE,3.5,-,N/A,,Overcast,140,2013-07-03 01:35:00
9:55 PM,70.3,68.2,93,30.20,10.0,SSE,3.5,-,N/A,,Mostly Cloudy,150,2013-07-03 01:55:00
10:15 PM,70.2,68.2,93,30.21,10.0,ESE,4.6,-,N/A,,Mostly Cloudy,120,2013-07-03 02:15:00
10:35 PM,70.0,68.2,94,30.21,10.0,SE,3.5,-,N/A,,Mostly Cloudy,130,2013-07-03 02:35:00
10:55 PM,69.8,68.0,94,30.22,10.0,Calm,Calm,-,N/A,,Scattered Clouds,0,2013-07-03 02:55:00
11:15 PM,69.4,68.2,96,30.22,10.0,Calm,Calm,-,N/A,,Mostly Cloudy,0,2013-07-03 03:15:00
11:35 PM,68.9,68.0,97,30.22,10.0,Calm,Calm,-,N/A,,Scattered Clouds,0,2013-07-03 03:35:00
11:55 PM,68.9,68.2,98,30.22,10.0,Calm,Calm,-,N/A,,Mostly Cloudy,0,2013-07-03 03:55:00